User: anonymous   Login
Location: Nirvana
(45.0297°N, 77.2628°W)
Time: 01:47:50
(UTC-04:00)
Language:

H-2A R/B - Orbit

View from above orbital plane
View from above orbital plane
View from above satellite
View from above satellite

Ground track
Ground track

The orbit data is extracted from the following two-line orbital elements,

1 27601U 02056E   15208.22532296  .00000061  00000-0  37903-4 0  9999
2 27601 098.4521 285.8935 0072367 180.8420 238.8411 14.31621847658941
Epoch (UTC): 27 July 2015 05:24:27
Eccentricity: 0.0072367
inclination: 98.4521°
perigee height: 734 km
apogee height: 838 km
right ascension of ascending node: 285.8935°
argument of perigee: 180.8420°
revolutions per day: 14.31621847
mean anomaly at epoch: 238.8411°
orbit number at epoch: 65894

The dashed part of the orbit path shows where the satellite is in the earth's shadow,  

DLR